THORAD AGENA D DEB

Satellite information

Favourite Embed

Satellite Type and Status

DEBRISIN ORBIT

Key statistics

Satellite THORAD AGENA D DEB at a glance.

Uptime

20339

Days in orbit

Revolutions

≈ 14.0

Per day

Orbit

SSO

Sun Synchronous Orbit

Inclination

98.9

Latest

Satellite identification and parameters

Extended collection of information and parameters for THORAD AGENA D DEB.

Object identification

Identified? True

Debris? True

Object name: THORAD AGENA D DEB

International designator: 1970-025MV

Object number (NORAD): 6139

Object ID (CCSDS): 6139

Country: UNITED STATES OF AMERICA (US)

Current information (Y/N): Y

RCS size: SMALL

Orbital parameters

Period: 102.746 minutes

Inclination: 98.9249 deg

SMA: 7266.711 km

Apoapsis: 939.161 km

Periapsis: 837.991 km

RAAN: 219.9459 deg

Eccentricy: 0.00696116

Argument of periapsis: 135.2461 deg

Mean anomaly: 225.4349 deg

Mean motion: 14.01509195 rev/day

Mean motion (dot): 0.00002623 rev/day2

B* drag term: 0.00172664 1/REarth

Two-line elements (TLE)

Creation date: Dec. 12, 2025, 10:14 a.m.

Reference frame: TEME

Reference center: EARTH

Epoch: Dec. 12, 2025, 2:48 a.m. UTC

TLE line 0: 0 THORAD AGENA D DEB

TLE line 1: 1 06139U 70025MV 25346.11732558 .00002623 00000-0 17266-2 0 9992

TLE line 2: 2 06139 98.9249 219.9459 0069612 135.2461 225.4349 14.01509195802809

Live tracking on map

Real-time ground track for satellite THORAD AGENA D DEB.

In-orbit conjunctions

A list of the most updated potential collisions computed for object THORAD AGENA D DEB.

Target Orbit TCA Probability of collision Miss distance Type
METEOR 1-27 LEO 2025-10-30 08:00:36 0.001028178 174.0 (m) PAYLOAD
COSMOS 1275 DEB LEO 2025-03-26 17:13:17 0.0002018788 168.0 (m) DEBRIS
COSMOS 1275 DEB LEO 2025-02-13 17:05:38 0.000109091 238.0 (m) DEBRIS
METEOR 2-11 DEB LEO 2024-06-10 12:17:36 0.0002150125 387.0 (m) DEBRIS

Associated space launch

Meteorological research and development satellite

THORAD AGENA D DEB was lifted into orbit during the mission ‘Thorad SLV-2G Agena D | Nimbus 4’, on board a Thorad SLV-2G Agena D space rocket.

The launch took place on April 8, 1970, 8:17 a.m. from Space Launch Complex 2E.

For more information about the launch, click the button.

Launch to space Thorad SLV-2G Agena D | Nimbus 4
Thorad SLV-2G Agena D | Nimbus 4

Agency: N/A

Status: Launch Successful

Launch date: April 8, 1970, 8:17 a.m. UTC

Rocket: Thorad SLV-2G Agena D

Launch pad: Space Launch Complex 2E

Location: Vandenberg SFB, CA, USA

...

Latest news about this satellite

There are no fresh news available about this satellite. Check back as we update our databases every day.


Newsletter sign-up

Weekly statistics, charts and insights to help you stay on top of the space industry.